Regional Weather Roundup
Issued by NWS Spokane, WA

Home | Current Version | Previous Version | Text Only | Print | Product List | Glossary On
Versions: 1 2 3 4 5 6 7 8 9 10 11 12 13 14 15 16 17 18 19 20 21 22 23 24 25 26 27 28 29 30 31 32 33 34 35 36 37 38 39 40 41 42 43 44 45 46 47 48 49 50
000
NZUS01 KOTX 251005
RWROTX
EASTERN WASHINGTON/NORTHERN IDAHO ROUNDUP
NATIONAL WEATHER SERVICE, SPOKANE WA
300 AM PDT MON JUL 25 2016

Note: "fair" indicated few or no clouds below 12,000 feet with no
significant weather and/or obstructions to visibility.

...NORTHEAST WASHINGTON AND NORTHERN IDAHO PANHANDLE...

CITY           SKY/WX    TMP DP  RH WIND       PRES   REMARKS
SPOKANE INTL   CLEAR     62  45  53 CALM      30.02R
SPOKANE DOWNTO CLEAR     59  52  77 NE3       30.01S
COEUR D ALENE  CLEAR     57  52  82 E5        30.01R
DEER PARK      CLEAR     52  48  86 CALM      30.02R
SANDPOINT      CLEAR     52  52 100 CALM      30.03S
BONNERS FERRY    N/A     57  50  77 CALM      30.04R

...SOUTHEAST WASHINGTON AND SOUTHERN IDAHO PANHANDLE...

CITY           SKY/WX    TMP DP  RH WIND       PRES   REMARKS
WALLA WALLA    CLEAR     64  48  56 E6        29.95R
PULLMAN/MOSCOW CLEAR     53  45  74 CALM      30.03S
LEWISTON       CLEAR     65  43  44 S5        29.97R
LOWELL           N/A     57  51  80 NW3       30.05R

...COLUMBIA BASIN...

CITY           SKY/WX    TMP DP  RH WIND       PRES   REMARKS
EPHRATA        CLEAR     63  49  60 N6        29.95R
MOSES LAKE     CLEAR     61  48  62 N6        29.95S
TRI CITIES     CLEAR     59  54  83 CALM      29.93R
HERMISTON      CLEAR     60  47  61 CALM      29.92S
PENDLETON      CLEAR     65  42  43 SE12      29.96S

...EAST SLOPES CASCADES...

CITY           SKY/WX    TMP DP  RH WIND       PRES   REMARKS
THE DALLES     CLEAR     72  54  53 VRB7      29.93R
YAKIMA         CLEAR     64  51  62 W3        29.96S
ELLENSBURG     CLEAR     59  51  75 CALM      29.99S
STAMPEDE PASS  CLEAR     56  50  80 SW6       30.13S
WENATCHEE      CLEAR     70  53  54 W7        29.96R
OMAK           CLEAR     64  49  57 W6        29.97R

...SOUTHERN BRITISH COLUMBIA...

CITY           SKY/WX    TMP DP  RH WIND       PRES   REMARKS

...WESTERN MONTANA...

CITY           SKY/WX    TMP DP  RH WIND       PRES   REMARKS
MISSOULA       CLEAR     56  46  69 CALM      30.09R

...NEIGHBORING CITIES...

CITY           SKY/WX    TMP DP  RH WIND       PRES   REMARKS
SEATTLE        CLEAR     62  55  77 NW3       30.04R



USA.gov is the U.S. government's official web portal to all federal, state and local government web resources and services.